LKCS Weather Reports


time (UTC)temp
F
wind
direction
speed
knots
gust
knots
rain 1hr
in
rain 24hr
in
rain mn
in
humidity
%
barometer
mb
20260507060242 54 200 5.2 0.0 0.00 0.00 0.00 71 1011.0
20260507053231 52 210 4.3 0.0 0.00 0.00 0.00 81 1011.0
20260507050249 50 200 4.3 0.0 0.00 0.00 0.00 87 1011.0
20260507043231 48 240 4.3 0.0 0.00 0.00 0.00 93 1010.0
20260507040306 48 260 7.0 0.0 0.00 0.00 0.00 87 1010.0
20260507033231 50 260 4.3 0.0 0.00 0.00 0.00 87 1010.0
20260507030306 48 0 0.0 0.0 0.00 0.00 0.00 93 1010.0
20260507023231 52 0 2.6 0.0 0.00 0.00 0.00 81 1009.0
20260507020246 52 250 5.2 0.0 0.00 0.00 0.00 87 1009.0
20260507013305 54 0 1.7 0.0 0.00 0.00 0.00 87 1009.0
20260507010307 54 240 4.3 0.0 0.00 0.00 0.00 87 1009.0
20260507003305 55 280 4.3 0.0 0.00 0.00 0.00 82 1009.0
20260507000306 54 270 4.3 0.0 0.00 0.00 0.00 93 1009.0
20260506233304 54 0 1.7 0.0 0.00 0.00 0.00 93 1008.0
20260506230306 54 290 2.6 0.0 0.00 0.00 0.00 87 1008.0
20260506223304 55 290 4.3 0.0 0.00 0.00 0.00 82 1008.0
20260506220306 55 310 2.6 0.0 0.00 0.00 0.00 87 1007.0
20260506213238 54 260 5.2 0.0 0.00 0.00 0.00 93 1007.0
20260506210240 55 210 4.3 0.0 0.00 0.00 0.00 87 1007.0
20260506203304 55 0 2.6 0.0 0.00 0.00 0.00 93 1006.0
20260506200246 55 280 8.7 0.0 0.00 0.00 0.00 87 1006.0
20260506193305 57 270 13.0 0.0 0.00 0.00 0.00 87 1006.0
20260506191605 57 270 15.6 26.1 0.00 0.00 0.00 82 1006.0
20260506191304 57 270 17.4 0.0 0.00 0.00 0.00 82 1006.0
20260506190518 57 270 15.6 0.0 0.00 0.00 0.00 87 1005.0
20260506190306 59 280 12.2 0.0 0.00 0.00 0.00 82 1005.0
20260506183305 64 300 8.7 0.0 0.00 0.00 0.00 59 1003.0
20260506180306 66 290 8.7 0.0 0.00 0.00 0.00 52 1002.0
20260506174305 68 300 10.4 0.0 0.00 0.00 0.00 45 1002.0
20260506173305 70 0 0.0 0.0 0.00 0.00 0.00 37 1002.0
20260506170307 72 130 7.0 0.0 0.00 0.00 0.00 33 1002.0
20260506163252 73 140 4.3 0.0 0.00 0.00 0.00 31 1002.0
20260506160314 75 220 2.6 0.0 0.00 0.00 0.00 29 1003.0
20260506153305 75 170 6.1 0.0 0.00 0.00 0.00 29 1003.0
20260506150259 75 160 6.1 0.0 0.00 0.00 0.00 29 1003.0
20260506143305 75 190 6.1 0.0 0.00 0.00 0.00 29 1004.0
20260506140246 73 200 7.8 0.0 0.00 0.00 0.00 35 1004.0
20260506135306 72 220 10.4 0.0 0.00 0.00 0.00 40 1004.0
20260506133245 72 120 7.0 0.0 0.00 0.00 0.00 40 1004.0
20260506130315 72 120 5.2 0.0 0.00 0.00 0.00 37 1005.0
20260506123305 72 160 5.2 0.0 0.00 0.00 0.00 37 1005.0
20260506120313 70 200 7.0 0.0 0.00 0.00 0.00 40 1006.0
20260506113237 72 180 7.8 0.0 0.00 0.00 0.00 37 1006.0
20260506110312 70 0 1.7 0.0 0.00 0.00 0.00 40 1006.0
20260506103304 70 0 4.3 0.0 0.00 0.00 0.00 46 1006.0
20260506100244 68 0 4.3 0.0 0.00 0.00 0.00 49 1007.0
20260506093238 68 120 6.1 0.0 0.00 0.00 0.00 49 1007.0
20260506090248 66 150 4.3 0.0 0.00 0.00 0.00 55 1007.0
20260506083237 64 0 4.3 0.0 0.00 0.00 0.00 59 1007.0
20260506080312 63 0 1.7 0.0 0.00 0.00 0.00 59 1007.0
20260506073237 63 180 5.2 0.0 0.00 0.00 0.00 67 1008.0
20260506070314 61 0 2.6 0.0 0.00 0.00 0.00 72 1007.0